User: anonymous   Login
Location: Newark
(21.1200°N, 73.4000°E)
Time: 02:27:46
(UTC+00:00)
Language:

Transit 2A Rocket - Orbit

View from above orbital plane
View from above orbital plane
View from above satellite
View from above satellite

Ground track
Ground track

The orbit data is extracted from the following two-line orbital elements,

1    47U 60007C   20026.41573863 -.00000071  00000-0  90506-5 0  9995
2    47  66.6648 177.4788 0222457  46.5714 315.3664 14.42069754114501
Epoch (UTC): 26 January 2020 09:58:39
Eccentricity: 0.0222457
inclination: 66.6648°
perigee height: 593 km
apogee height: 910 km
right ascension of ascending node: 177.4788°
argument of perigee: 46.5714°
revolutions per day: 14.42069754
mean anomaly at epoch: 315.3664°
orbit number at epoch: 11450

The dashed part of the orbit path shows where the satellite is in the earth's shadow,  

DLR